This demonstration page uses our WeatherBlox Daily Observations layout. Learn more.

Left ArrowRight Arrow

44.31136, -96.79839

Hourly Observations for September 5, 2021

Temp ( °F °C ) Dew Point ( °F °C ) Humidity (%) Winds ( mph kmh ) Pressure ( in mb ) Visibility ( mi km ) Precip ( " mm )
12:56 am 00:56 Clear 57 13.9 52 11.1 83 83 SW 5 7 30.02 1017 10 16 0.00 0.00
1:56 am 01:56 Clear 58 14.4 52 11.1 81 81 S 3 6 30.01 1016 10 16 0.00 0.00
2:56 am 02:56 Clear 54 12.2 51 10.6 90 90 S 3 6 30.01 1016 10 16 0.00 0.00
3:56 am 03:56 Clear 54 12.2 50 10 87 87 S 6 9 29.99 1016 10 16 0.00 0.00
4:56 am 04:56 Clear 54 12.2 50 10 87 87 S 6 9 29.99 1016 10 16 0.00 0.00
5:56 am 05:56 Clear 53 11.7 50 10 89 89 SE 5 7 29.98 1015 10 16 0.00 0.00
6:56 am 06:56 Sunny 54 12.2 50 10 87 87 SSW 5 7 29.99 1016 10 16 0.00 0.00
7:56 am 07:56 Sunny 58 14.4 53 11.7 84 84 SSW 5 7 29.99 1016 10 16 0.00 0.00
8:56 am 08:56 Sunny 64 17.8 57 13.9 78 78 SW 5 7 29.99 1016 10 16 0.00 0.00
9:56 am 09:56 Sunny 70 21.1 58 14.4 66 66 WSW 10 17 29.99 1016 10 16 0.00 0.00
10:56 am 10:56 Sunny 75 23.9 58 14.4 55 55 W 15 24 29.99 1016 10 16 0.00 0.00
11:56 am 11:56 Sunny 76 24.4 59 15 56 56 W 17 28 29.98 1015 10 16 0.00 0.00
12:56 pm 12:56 Sunny 77 25 56 13.3 48 48 W 15 24 29.98 1015 10 16 0.00 0.00
1:56 pm 13:56 Sunny 78 25.6 54 12.2 43 43 NW 15 24 29.96 1015 10 16 0.00 0.00
2:56 pm 14:56 Sunny 78 25.6 48 8.9 35 35 NW 18 30 29.96 1015 10 16 0.00 0.00
3:56 pm 15:56 Sunny 78 25.6 49 9.4 36 36 NW 16 26 29.96 1015 10 16 0.00 0.00
4:56 pm 16:56 Sunny 78 25.6 48 8.9 35 35 NW 14 22 29.96 1014 10 16 0.00 0.00
5:56 pm 17:56 Sunny 76 24.4 48 8.9 37 37 NNW 9 15 29.96 1015 10 16 0.00 0.00
6:56 pm 18:56 Sunny 74 23.3 51 10.6 45 45 NNW 7 11 29.98 1015 10 16 0.00 0.00
7:56 pm 19:56 Sunny 70 21.1 52 11.1 53 53 N 5 7 29.97 1015 10 16 0.00 0.00
8:56 pm 20:56 Clear 68 20 51 10.6 55 55 Calm 29.98 1015 10 16 0.00 0.00
9:56 pm 21:56 Clear 63 17.2 52 11.1 68 68 NE 3 6 29.97 1015 10 16 0.00 0.00
10:56 pm 22:56 Clear 59 15 51 10.6 75 75 Calm 29.98 1015 10 16 0.00 0.00
11:56 pm 23:56 Clear 57 13.9 52 11.1 83 83 Calm 29.98 1015 10 16 0.00 0.00

Powered by AerisWeather